User: anonymous   Login
Location: Unspecified
(0.0000°N, 0.0000°E)
Time: 19:58:15
(UTC+00:00)
Language:

Safir 2 - Orbit

View from above orbital plane
View from above orbital plane
View from above satellite
View from above satellite

Ground track
Ground track

The orbit data is extracted from the following two-line orbital elements,

1 25399U 98043F   18017.39082773 -.00000014  00000-0  12793-4 0  9990
2 25399  98.6018 321.7247 0002393  41.6588 318.4773 14.24603879 14762
Epoch (UTC): 17 January 2018 09:22:47
Eccentricity: 0.0002393
inclination: 98.6018°
perigee height: 808 km
apogee height: 811 km
right ascension of ascending node: 321.7247°
argument of perigee: 41.6588°
revolutions per day: 14.24603879
mean anomaly at epoch: 318.4773°
orbit number at epoch: 1476

The dashed part of the orbit path shows where the satellite is in the earth's shadow,  

DLR